Home > Weather > Ojinaga > Past weeks

Flag for Mexico Past Weather in Ojinaga, Chihuahua, Mexico — Yesterday and Last 2 Weeks

Now
65 °F

Clear.


Feels Like: 65 °F
Forecast: 72 / 93 °F
Wind: 3 mph from North

Location: Marfa Municipal Airport

Current Time: Jul 29, 2016 at 11:25:10 PM

Latest Report: Jul 29, 2016 at 10:56 PM


Visibility: 10 mi

Pressure: 30.01 "Hg (27.36 "Hg at 788m altitude)

Humidity: 85%

Dew Point: 60 °F

Location of OjinagaLocation

Past Weather in Ojinaga — Graph

°F

Ojinaga Temperature Yesterday

Maximum temperature yesterday: 89 °F (at 1:56 PM)
Minimum temperature yesterday: 60 °F (at 5:56 AM)
Average temperature yesterday: 76 °F

High & Low Weather Summary for the Past Weeks

 TemperatureHumidityPressure
High95 °F (Jul 23, 4:56 PM)93% (Jul 29, 4:56 PM)30.30 "Hg (Jul 29, 4:56 PM)
Low58 °F (Jul 21, 5:56 AM)20% (Jul 22, 3:56 PM)29.82 "Hg (Jul 24, 5:56 PM)
Average78 °F48%29.99 "Hg
* Reported Jul 20 12:56 PM — Jul 29 9:56 PM, Ojinaga, Weather by CustomWeather, © 2016

Note: Actual official high and low records may vary slightly from our data, if they occured in-between our weather recording intervals... More about our weather records

Advertising

Ojinaga Weather History for the Previous 24 Hours

Scroll right to see more
 ConditionsComfort  
Time TempWeatherWind HumidityBarometerVisibility
9:56 PM
Fri, Jul 29
67 °FClear.5 mph76%29.99 "Hg10 mi
8:56 PM69 °FClear.7 mph73%29.97 "Hg10 mi
7:56 PM69 °FSunny.6 mph87%29.97 "Hg10 mi
6:56 PM70 °FSunny.5 mph84%29.98 "Hg10 mi
5:56 PM70 °FSunny.No wind81%30.00 "Hg10 mi
4:56 PM66 °FThundershowers. Broken clouds.12 mph93%30.03 "Hg10 mi
3:56 PM71 °FStrong thunderstorms. Mostly cloudy.20 mph78%30.00 "Hg9 mi
2:56 PM78 °FThundershowers. Broken clouds.13 mph50%29.97 "Hg10 mi
1:56 PM87 °FThundershowers. Scattered clouds.12 mph37%29.96 "Hg10 mi
12:56 PM81 °FSunny.9 mph42%30.00 "Hg10 mi
11:56 AM83 °FPartly sunny.8 mph43%30.01 "Hg10 mi
10:56 AM80 °FPassing clouds.5 mph49%30.03 "Hg10 mi
9:56 AM77 °FSunny.5 mph54%30.03 "Hg10 mi
8:56 AM74 °FSunny.6 mph60%30.02 "Hg10 mi
7:56 AM71 °FSunny.No wind66%30.00 "Hg10 mi
6:56 AM63 °FClear.3 mph78%30.00 "Hg10 mi
5:56 AM58 °FClear.No wind84%29.98 "Hg10 mi
4:56 AM59 °FClear.No wind81%29.97 "Hg10 mi
3:56 AM60 °FClear.6 mph78%29.98 "Hg10 mi
2:56 AM61 °FClear.6 mph78%29.98 "Hg10 mi
1:56 AM64 °FClear.6 mph73%29.99 "Hg10 mi
12:56 AM66 °FClear.5 mph65%29.99 "Hg10 mi
11:56 PM
Thu, Jul 28
66 °FClear.5 mph68%30.01 "Hg10 mi
Weather by CustomWeather, © 2016

See weather overviewHow to use our weather pages